Montana Department of Transportation

Main Content

Accidents and Incidents Report

Hourly Weather Roundup

ASUS45 KTFX 250419
RWRMT 
MONTANA HOURLY WEATHER ROUNDUP
NATIONAL WEATHER SERVICE GREAT FALLS MT
1019 PM MDT THU APR 24 2014

NOTE: "FAIR" INDICATES FEW OR NO CLOUDS BELOW 12000 FEET WITH NO
SIGNIFICANT WEATHER AND/OR OBSTRUCTIONS TO VISIBILITY.

* THESE STATIONS ARE NOT UNDER NWS QUALITY CONTROL. THEY DO NOT
   REPORT WEATHER SUCH AS PRECIPITATION OR FOG.

MTZ001.007-043-250500-
WEST OF THE DIVIDE
CITY           SKY/WX    TMP DP  RH WIND       PRES   REMARKS
KALISPELL      LGT RAIN  45  39  80 SW5       29.82R 
MISSOULA       CLOUDY    45  39  80 S7        29.87F 
BUTTE          LGT RAIN  36  34  92 NE8       29.88R WCI  30 
MULLAN PASS    FOG       30  30 100 VRB6      29.81S VSB M1/4 WCI  24 
* ESSEX        N/A       38  36  93 N/A        N/A   
* LINCOLN      N/A       41  34  76 SW5G13     N/A   
* LOOKOUT PASS N/A       36  36 100 SE1G6      N/A   
* POLSON       N/A       41  38  89 SE2        N/A   
* SEELEY LAKE  N/A       41  38  89 NE2G7      N/A   
* THOMP F APT  MOCLDY    38  35  89 NE1G7      N/A   
* YAAK HILL    N/A       43  40  89 N1         N/A   
--------------------------------

MTZ008-052.055-250500-
SOUTHWEST MONTANA
CITY           SKY/WX    TMP DP  RH WIND       PRES   REMARKS
BOZEMAN        FAIR      37  32  82 S10       29.84S WCI  30 
DILLON         MOCLDY    43  36  76 S12       29.84R 
W YELLOWSTONE  N/A       33  33 100 SW2G7      N/A   
* THREE FORKS  PTCLDY    41  41 100 N/A        N/A   
* BOULDER HILL N/A       41  25  53 SW2        N/A   
* MONIDA PASS  N/A       37  29  73 W2         N/A   
* RAYNOLDS PAS N/A       33  16  50 S16        N/A   WCI  23 
* WHITEHALL    N/A       47  31  54 W8G14      N/A   
* WISE RIVER   N/A       34  32  92 SW3G20     N/A   
--------------------------------

MTZ009.010-012-014-046-048-049-054-250500-
EAST SLOPES AND CENTRAL MONTANA
CITY           SKY/WX    TMP DP  RH WIND       PRES   REMARKS
CUT BANK       CLOUDY    45  32  60 W18       29.73R 
GREAT FALLS    CLOUDY    45  32  60 SW15      29.77R 
HELENA         MOCLDY    46  36  68 SW5       29.83R 
MALMSTROM AFB  MOCLDY    46  30  54 S14       29.74R 
* CONRAD       CLOUDY    46  30  54 N/A        N/A   
* DEARBORN     N/A       51  30  45 S18G29     N/A   
* EAST GLACIER N/A       37  32  82 W19G25     N/A   WCI  27 
* MONARCH      N/A       42  19  40 SW16G25    N/A   
* PENDROY      N/A       39  27  62 N2         N/A   
* ROGERS PASS  N/A       38  31  76 SE11G16    N/A   WCI  31 
* SAINT MARY   N/A       41  30  65 S11G22     N/A   
* SWEET GRASS  N/A       45  30  56 SW15       N/A   
* WHITE SULPH  N/A       38  32  79 S4         N/A   
--------------------------------

MTZ011-013-016-021-035-040-045-047-050-051-250500-
NORTH CENTRAL MONTANA
CITY           SKY/WX    TMP DP  RH WIND       PRES   REMARKS
HAVRE          CLOUDY    48  37  66 SW10      29.71R 
LEWISTOWN      PTCLDY    39  36  89 SW13      29.78R WCI  31 
* CHINOOK      CLEAR     46  36  68 CALM      29.71R 
* FORT BENTON  MOCLDY    48  30  50 SW5       29.76R 
* MALTA APT    MOCLDY    45  32  60 CALM      29.71R 
* CHESTER      N/A       47  30  52 W7G12      N/A   
* DENTON       N/A       40  30  68 SW4        N/A   
* GEYSER       N/A       40  28  62 W7         N/A   WCI  35 
* JUDITH GAP   N/A       42  32  68 SW2        N/A   
* LOMA         N/A       49  32  52 S2         N/A   
--------------------------------

MTZ017.020-022.027-061-062-250500-
NORTHEAST MONTANA
CITY           SKY/WX    TMP DP  RH WIND       PRES   REMARKS
GLASGOW        CLOUDY    54  34  47 W9        29.72R 
GLENDIVE       CLOUDY    46  30  54 W7        29.76S 
JORDAN         CLOUDY    46  34  63 CALM      29.74S 
SIDNEY         MOCLDY    45  27  49 SW10      29.75R 
WOLF POINT     CLOUDY    52  28  40 W7        29.72R 
* BEAVER HILL  N/A       52  29  41 SW9        N/A   
* CIRCLE       N/A       51  32  48 N/A        N/A   
* LINDSAY DVD  N/A       49  31  50 W8         N/A   
* NAVAJO       N/A       38  2662 SW4        N/A   
* SACO         N/A       48  34  59 SW5        N/A   
--------------------------------

MTZ028.042-056.058-250500-
SOUTHCENTRAL AND SOUTHEAST MONTANA
CITY           SKY/WX    TMP DP  RH WIND       PRES   REMARKS
BAKER          CLOUDY    50  32  50 NW6       29.79R 
BILLINGS       MOCLDY    48  36  63 NW17      29.80S 
LIVINGSTON     PTCLDY    39 N/A N/A NW13      29.83F WCI  31 
MILES CITY     PTCLDY    45  34  65 W3        29.76S 
* LAUREL APT   PTCLDY    48  30  50 W11        N/A   
* ROUNDUP APT  PTCLDY    48  32  54 W16G21     N/A   
* HYSHAM       N/A       49  29  46 SW2        N/A   
* REED POINT   N/A       47  37  68 W6         N/A   
* ROSCOE HILL  N/A       45  24  44 W4G9       N/A   
--------------------------------

REGIONAL REPORTS...DAKOTAS
CITY           SKY/WX    TMP DP  RH WIND       PRES   REMARKS
WILLISTON      PTCLDY    37  28  70 CALM      29.71S 
DICKINSON      MOCLDY    41  25  53 CALM      29.74R 
CROSBY         N/A       36  32  85 N/A        N/A   
TIOGA          MOCLDY    36  28  73 S7        29.74F WCI  30 
WATFORD CITY   PTCLDY    36  25  64 SW5       29.71S WCI  32 
BISMARCK       CLEAR     36  28  73 S3        29.76R 
GRAND FORKS    FOG       39  39 100 CALM      29.70F VSB 2 1/2 
FARGO          FOG       41  39  93 N6        29.70S VSB 3    
BUFFALO SD     MOCLDY    50  27  41 NW14      29.72R 
RAPID CITY     MOCLDY    46  28  50 N3        29.80R 
--------------------------------

REGIONAL REPORTS...WYOMING/IDAHO/WASHINGTON
CITY           SKY/WX    TMP DP  RH WIND       PRES   REMARKS
GILLETTE       MOCLDY    34  27  76 SW3       29.82R 
SHERIDAN       PTCLDY    45  32  60 W12       29.83R 
CODY           MOCLDY    48  28  46 W12       29.86S 
YELLOWSTONE LA CLOUDY    30  30 100 CALM      29.97R 
SALMON         MOCLDY    41  34  76 S7        29.88R 
MULLAN PASS    FOG       30  30 100 VRB6      29.81S VSB M1/4 WCI  24 
SAND POINT     MOCLDY    43  43 100 NE8       29.81R 
SPOKANE        MOCLDY    50  32  50 SW12      29.78R 
--------------------------------

REGIONAL REPORTS...ALBERTA
CITY           SKY/WX    TMP DP  RH WIND       PRES   REMARKS
CALGARY        FAIR      45  25  45 E12       29.66R 
LETHBRIDGE     MOCLDY    43  32  65 SW13      29.68R 
MEDICINE HAT   MOCLDY    50  28  43 E7        29.68R 
EDMONTON       MOCLDY    36  30  79 NE6       29.76R WCI  31 
WATERTON GATE  N/A       43  27  53 SW17G28    N/A   
CARDSTON       N/A       43  30  60 SW7        N/A   
MILK RIVER     N/A       43  30  60 W6         N/A   
--------------------------------

REGIONAL REPORTS...SASKATCHEWAN
CITY           SKY/WX    TMP DP  RH WIND       PRES   REMARKS
SWIFT CURRENT  CLEAR     36  32  85 E9        29.70R WCI  29 
REGINA         FAIR      41  36  82 E3        29.72R 
VAL MARIE      N/A       48  28  46 N8         N/A   
ASSINIBOIA     N/A       37  30  76 NE9        N/A   WCI  30 
CORONACH       N/A       34  27  76 SW2        N/A   

--------------------------------